Time,TemperatureF,DewpointF,PressureIn,WindDirection,WindDirectionDegrees,WindSpeedMPH,WindSpeedGustMPH,Humidity,HourlyPrecipIn,Conditions,Clouds,dailyrainin,SolarRadiationWatts/m^2,SoftwareType,DateUTC
2013-02-09 00:01:00,29.0,22.0,-100.00,ESE,117,4.0,7.0,74,0.00,,,0.00,0.000000,,2013-02-09 07:01:00,
2013-02-09 00:22:00,29.0,22.0,-100.00,ESE,117,4.0,7.0,74,0.00,,,0.00,0.000000,,2013-02-09 07:22:00,
2013-02-09 00:32:00,29.0,22.0,-100.00,ESE,117,4.0,7.0,74,0.00,,,0.00,0.000000,,2013-02-09 07:32:00,
2013-02-09 00:42:00,29.0,22.0,-100.00,ESE,117,4.0,7.0,74,0.00,,,0.00,0.000000,,2013-02-09 07:42:00,
2013-02-09 00:52:00,29.0,22.0,-100.00,ESE,117,4.0,7.0,74,0.00,,,0.00,0.000000,,2013-02-09 07:52:00,
2013-02-09 01:01:00,29.0,23.0,-100.00,NE,39,4.0,5.0,77,0.00,,,0.00,0.000000,,2013-02-09 08:01:00,
2013-02-09 01:32:00,29.0,23.0,-100.00,NE,39,4.0,5.0,77,0.00,,,0.00,0.000000,,2013-02-09 08:32:00,
2013-02-09 01:42:00,29.0,23.0,-100.00,NE,39,4.0,5.0,77,0.00,,,0.00,0.000000,,2013-02-09 08:42:00,
2013-02-09 01:52:00,29.0,23.0,-100.00,NE,39,4.0,5.0,77,0.00,,,0.00,0.000000,,2013-02-09 08:52:00,
2013-02-09 02:01:00,28.0,22.0,-100.00,NNE,17,2.0,5.0,77,0.00,,,0.00,0.000000,,2013-02-09 09:01:00,
2013-02-09 02:32:00,28.0,22.0,-100.00,NNE,17,2.0,5.0,77,0.00,,,0.00,0.000000,,2013-02-09 09:32:00,
2013-02-09 02:42:00,28.0,22.0,-100.00,NNE,17,2.0,5.0,77,0.00,,,0.00,0.000000,,2013-02-09 09:42:00,
2013-02-09 02:52:00,28.0,22.0,-100.00,NNE,17,2.0,5.0,77,0.00,,,0.00,0.000000,,2013-02-09 09:52:00,
2013-02-09 03:01:00,28.0,22.0,-100.00,NNE,17,4.0,5.0,78,0.00,,,0.00,0.000000,,2013-02-09 10:01:00,
2013-02-09 03:32:00,28.0,22.0,-100.00,NNE,17,4.0,5.0,78,0.00,,,0.00,0.000000,,2013-02-09 10:32:00,
2013-02-09 03:42:00,28.0,22.0,-100.00,NNE,17,4.0,5.0,78,0.00,,,0.00,0.000000,,2013-02-09 10:42:00,
2013-02-09 03:52:00,28.0,22.0,-100.00,NNE,17,4.0,5.0,78,0.00,,,0.00,0.000000,,2013-02-09 10:52:00,
2013-02-09 04:01:00,29.0,18.0,-100.00,NE,50,3.0,5.0,64,0.00,,,0.00,0.000000,,2013-02-09 11:01:00,
2013-02-09 04:32:00,29.0,18.0,-100.00,NE,50,3.0,5.0,64,0.00,,,0.00,0.000000,,2013-02-09 11:32:00,
2013-02-09 04:42:00,29.0,18.0,-100.00,NE,50,3.0,5.0,64,0.00,,,0.00,0.000000,,2013-02-09 11:42:00,
2013-02-09 04:52:00,29.0,18.0,-100.00,NE,50,3.0,5.0,64,0.00,,,0.00,0.000000,,2013-02-09 11:52:00,
2013-02-09 05:01:00,27.0,18.0,-100.00,NNE,17,4.0,7.0,68,0.00,,,0.00,0.000000,,2013-02-09 12:01:00,
2013-02-09 05:32:00,27.0,18.0,-100.00,NNE,17,4.0,7.0,68,0.00,,,0.00,0.000000,,2013-02-09 12:32:00,
2013-02-09 05:42:00,27.0,18.0,-100.00,NNE,17,4.0,7.0,68,0.00,,,0.00,0.000000,,2013-02-09 12:42:00,
2013-02-09 05:52:00,27.0,18.0,-100.00,NNE,17,4.0,7.0,68,0.00,,,0.00,0.000000,,2013-02-09 12:52:00,
2013-02-09 06:01:00,26.0,21.0,-100.00,North,354,5.0,7.0,80,0.00,,,0.00,0.000000,,2013-02-09 13:01:00,
2013-02-09 06:32:00,26.0,21.0,-100.00,North,354,5.0,7.0,80,0.00,,,0.00,0.000000,,2013-02-09 13:32:00,
2013-02-09 06:42:00,26.0,21.0,-100.00,North,354,5.0,7.0,80,0.00,,,0.00,0.000000,,2013-02-09 13:42:00,
2013-02-09 06:52:00,26.0,21.0,-100.00,North,354,5.0,7.0,80,0.00,,,0.00,0.000000,,2013-02-09 13:52:00,
2013-02-09 07:01:00,26.0,20.0,-100.00,North,6,4.0,6.0,77,0.00,,,0.00,0.000000,,2013-02-09 14:01:00,
2013-02-09 07:22:00,26.0,20.0,-100.00,North,6,4.0,6.0,77,0.00,,,0.00,0.000000,,2013-02-09 14:22:00,
2013-02-09 07:32:00,26.0,20.0,-100.00,North,6,4.0,6.0,77,0.00,,,0.00,0.000000,,2013-02-09 14:32:00,
2013-02-09 07:42:00,26.0,20.0,-100.00,North,6,4.0,6.0,77,0.00,,,0.00,0.000000,,2013-02-09 14:42:00,
2013-02-09 07:52:00,26.0,20.0,-100.00,North,6,4.0,6.0,77,0.00,,,0.00,0.000000,,2013-02-09 14:52:00,
2013-02-09 08:01:00,27.0,22.0,-100.00,NW,313,3.0,6.0,80,0.00,,,0.00,20.000000,,2013-02-09 15:01:00,
2013-02-09 08:32:00,27.0,22.0,-100.00,NW,313,3.0,6.0,80,0.00,,,0.00,20.000000,,2013-02-09 15:32:00,
2013-02-09 08:42:00,27.0,22.0,-100.00,NW,313,3.0,6.0,80,0.00,,,0.00,20.000000,,2013-02-09 15:42:00,
2013-02-09 08:52:00,27.0,22.0,-100.00,NW,313,3.0,6.0,80,0.00,,,0.00,20.000000,,2013-02-09 15:52:00,
2013-02-09 09:01:00,29.0,20.0,-100.00,NW,314,4.0,5.0,70,0.00,,,0.00,112.000000,,2013-02-09 16:01:00,
2013-02-09 09:32:00,29.0,20.0,-100.00,NW,314,4.0,5.0,70,0.00,,,0.00,112.000000,,2013-02-09 16:32:00,
2013-02-09 09:42:00,29.0,20.0,-100.00,NW,314,4.0,5.0,70,0.00,,,0.00,112.000000,,2013-02-09 16:42:00,
2013-02-09 09:52:00,29.0,20.0,-100.00,NW,314,4.0,5.0,70,0.00,,,0.00,112.000000,,2013-02-09 16:52:00,
2013-02-09 10:01:00,31.0,24.0,-100.00,NW,309,2.0,4.0,74,0.00,,,0.00,146.000000,,2013-02-09 17:01:00,
2013-02-09 10:22:00,31.0,24.0,-100.00,NW,309,2.0,4.0,74,0.00,,,0.00,146.000000,,2013-02-09 17:22:00,
2013-02-09 10:32:00,31.0,24.0,-100.00,NW,309,2.0,4.0,74,0.00,,,0.00,146.000000,,2013-02-09 17:32:00,
2013-02-09 10:42:00,31.0,24.0,-100.00,NW,309,2.0,4.0,74,0.00,,,0.00,146.000000,,2013-02-09 17:42:00,
2013-02-09 10:52:00,31.0,24.0,-100.00,NW,309,2.0,4.0,74,0.00,,,0.00,146.000000,,2013-02-09 17:52:00,
2013-02-09 11:01:00,33.0,24.0,-100.00,NNE,33,4.0,7.0,69,0.00,,,0.00,257.000000,,2013-02-09 18:01:00,
2013-02-09 11:23:00,33.0,24.0,-100.00,NNE,33,4.0,7.0,69,0.00,,,0.00,257.000000,,2013-02-09 18:23:00,
2013-02-09 11:32:00,33.0,24.0,-100.00,NNE,33,4.0,7.0,69,0.00,,,0.00,257.000000,,2013-02-09 18:32:00,
2013-02-09 11:42:00,33.0,24.0,-100.00,NNE,33,4.0,7.0,69,0.00,,,0.00,257.000000,,2013-02-09 18:42:00,
2013-02-09 11:52:00,33.0,24.0,-100.00,NNE,33,4.0,7.0,69,0.00,,,0.00,257.000000,,2013-02-09 18:52:00,
2013-02-09 12:01:00,33.0,22.0,-100.00,North,7,5.0,7.0,63,0.00,,,0.00,295.000000,,2013-02-09 19:01:00,
2013-02-09 12:32:00,33.0,22.0,-100.00,North,7,5.0,7.0,63,0.00,,,0.00,295.000000,,2013-02-09 19:32:00,
2013-02-09 12:42:00,33.0,22.0,-100.00,North,7,5.0,7.0,63,0.00,,,0.00,295.000000,,2013-02-09 19:42:00,
2013-02-09 12:52:00,33.0,22.0,-100.00,North,7,5.0,7.0,63,0.00,,,0.00,295.000000,,2013-02-09 19:52:00,
2013-02-09 13:01:00,33.0,22.0,-100.00,WNW,285,8.0,11.0,64,0.00,,,0.00,321.000000,,2013-02-09 20:01:00,
2013-02-09 13:22:00,33.0,22.0,-100.00,WNW,285,8.0,11.0,64,0.00,,,0.00,321.000000,,2013-02-09 20:22:00,
2013-02-09 13:32:00,33.0,22.0,-100.00,WNW,285,8.0,11.0,64,0.00,,,0.00,321.000000,,2013-02-09 20:32:00,
2013-02-09 13:42:00,33.0,22.0,-100.00,WNW,285,8.0,11.0,64,0.00,,,0.00,321.000000,,2013-02-09 20:42:00,
2013-02-09 13:52:00,33.0,22.0,-100.00,WNW,285,8.0,11.0,64,0.00,,,0.00,321.000000,,2013-02-09 20:52:00,
2013-02-09 14:01:00,33.0,22.0,-100.00,NW,311,5.0,10.0,63,0.00,,,0.00,230.000000,,2013-02-09 21:01:00,
2013-02-09 14:32:00,33.0,22.0,-100.00,NW,311,5.0,10.0,63,0.00,,,0.00,230.000000,,2013-02-09 21:32:00,
2013-02-09 14:42:00,33.0,22.0,-100.00,NW,311,5.0,10.0,63,0.00,,,0.00,230.000000,,2013-02-09 21:42:00,
2013-02-09 14:52:00,33.0,22.0,-100.00,NW,311,5.0,10.0,63,0.00,,,0.00,230.000000,,2013-02-09 21:52:00,
2013-02-09 15:01:00,34.0,22.0,-100.00,North,0,7.0,11.0,60,0.00,,,0.00,287.000000,,2013-02-09 22:01:00,
2013-02-09 15:32:00,34.0,22.0,-100.00,North,0,7.0,11.0,60,0.00,,,0.00,287.000000,,2013-02-09 22:32:00,
2013-02-09 15:42:00,34.0,22.0,-100.00,North,0,7.0,11.0,60,0.00,,,0.00,287.000000,,2013-02-09 22:42:00,
2013-02-09 15:52:00,34.0,22.0,-100.00,North,0,7.0,11.0,60,0.00,,,0.00,287.000000,,2013-02-09 22:52:00,
2013-02-09 16:01:00,33.0,23.0,-100.00,North,356,8.0,10.0,65,0.00,,,0.00,151.000000,,2013-02-09 23:01:00,
2013-02-09 16:32:00,33.0,23.0,-100.00,North,356,8.0,10.0,65,0.00,,,0.00,151.000000,,2013-02-09 23:32:00,
2013-02-09 16:42:00,33.0,23.0,-100.00,North,356,8.0,10.0,65,0.00,,,0.00,151.000000,,2013-02-09 23:42:00,
2013-02-09 16:52:00,33.0,23.0,-100.00,North,356,8.0,10.0,65,0.00,,,0.00,151.000000,,2013-02-09 23:52:00,
2013-02-09 17:01:00,31.0,20.0,-100.00,NE,34,6.0,9.0,64,0.00,,,0.00,90.000000,,2013-02-10 00:01:00,
2013-02-09 17:32:00,31.0,20.0,-100.00,NE,34,6.0,9.0,64,0.00,,,0.00,90.000000,,2013-02-10 00:32:00,
2013-02-09 17:42:00,31.0,20.0,-100.00,NE,34,6.0,9.0,64,0.00,,,0.00,90.000000,,2013-02-10 00:42:00,
2013-02-09 17:52:00,31.0,20.0,-100.00,NE,34,6.0,9.0,64,0.00,,,0.00,90.000000,,2013-02-10 00:52:00,
2013-02-09 18:01:00,30.0,21.0,-100.00,North,4,8.0,10.0,68,0.00,,,0.00,5.000000,,2013-02-10 01:01:00,
2013-02-09 18:32:00,30.0,21.0,-100.00,North,4,8.0,10.0,68,0.00,,,0.00,5.000000,,2013-02-10 01:32:00,
2013-02-09 18:42:00,30.0,21.0,-100.00,North,4,8.0,10.0,68,0.00,,,0.00,5.000000,,2013-02-10 01:42:00,
2013-02-09 18:52:00,30.0,21.0,-100.00,North,4,8.0,10.0,68,0.00,,,0.00,5.000000,,2013-02-10 01:52:00,
2013-02-09 19:01:00,29.0,20.0,-100.00,NNW,348,9.0,15.0,70,0.00,,,0.00,0.000000,,2013-02-10 02:01:00,
2013-02-09 19:32:00,29.0,20.0,-100.00,NNW,348,9.0,15.0,70,0.00,,,0.00,0.000000,,2013-02-10 02:32:00,
2013-02-09 19:42:00,29.0,20.0,-100.00,NNW,348,9.0,15.0,70,0.00,,,0.00,0.000000,,2013-02-10 02:42:00,
2013-02-09 19:52:00,29.0,20.0,-100.00,NNW,348,9.0,15.0,70,0.00,,,0.00,0.000000,,2013-02-10 02:52:00,
2013-02-09 20:01:00,29.0,21.0,-100.00,NNW,346,5.0,11.0,72,0.00,,,0.00,0.000000,,2013-02-10 03:01:00,
2013-02-09 20:22:00,29.0,21.0,-100.00,NNW,346,5.0,11.0,72,0.00,,,0.00,0.000000,,2013-02-10 03:22:00,
2013-02-09 20:32:00,29.0,21.0,-100.00,NNW,346,5.0,11.0,72,0.00,,,0.00,0.000000,,2013-02-10 03:32:00,
2013-02-09 20:42:00,29.0,21.0,-100.00,NNW,346,5.0,11.0,72,0.00,,,0.00,0.000000,,2013-02-10 03:42:00,
2013-02-09 20:52:00,29.0,21.0,-100.00,NNW,346,5.0,11.0,72,0.00,,,0.00,0.000000,,2013-02-10 03:52:00,
2013-02-09 21:01:00,30.0,21.0,-100.00,NNW,327,6.0,9.0,68,0.00,,,0.00,0.000000,,2013-02-10 04:01:00,
2013-02-09 21:22:00,30.0,21.0,-100.00,NNW,327,6.0,9.0,68,0.00,,,0.00,0.000000,,2013-02-10 04:22:00,
2013-02-09 21:32:00,30.0,21.0,-100.00,NNW,327,6.0,9.0,68,0.00,,,0.00,0.000000,,2013-02-10 04:32:00,
2013-02-09 21:42:00,30.0,21.0,-100.00,NNW,327,6.0,9.0,68,0.00,,,0.00,0.000000,,2013-02-10 04:42:00,
2013-02-09 21:52:00,30.0,21.0,-100.00,NNW,327,6.0,9.0,68,0.00,,,0.00,0.000000,,2013-02-10 04:52:00,
2013-02-09 22:01:00,28.0,20.0,-100.00,NNW,344,11.0,23.0,72,0.00,,,0.00,0.000000,,2013-02-10 05:01:00,
2013-02-09 22:23:00,28.0,20.0,-100.00,NNW,344,11.0,23.0,72,0.00,,,0.00,0.000000,,2013-02-10 05:23:00,
2013-02-09 22:32:00,28.0,20.0,-100.00,NNW,344,11.0,23.0,72,0.00,,,0.00,0.000000,,2013-02-10 05:32:00,
2013-02-09 22:42:00,28.0,20.0,-100.00,NNW,344,11.0,23.0,72,0.00,,,0.00,0.000000,,2013-02-10 05:42:00,
2013-02-09 22:52:00,28.0,20.0,-100.00,NNW,344,11.0,23.0,72,0.00,,,0.00,0.000000,,2013-02-10 05:52:00,
2013-02-09 23:01:00,27.0,22.0,-100.00,NNW,348,12.0,18.0,82,0.00,,,0.00,0.000000,,2013-02-10 06:01:00,
2013-02-09 23:21:00,27.0,22.0,-100.00,NNW,348,12.0,18.0,82,0.00,,,0.00,0.000000,,2013-02-10 06:21:00,
2013-02-09 23:32:00,27.0,22.0,-100.00,NNW,348,12.0,18.0,82,0.00,,,0.00,0.000000,,2013-02-10 06:32:00,
2013-02-09 23:42:00,27.0,22.0,-100.00,NNW,348,12.0,18.0,82,0.00,,,0.00,0.000000,,2013-02-10 06:42:00,
2013-02-09 23:52:00,27.0,22.0,-100.00,NNW,348,12.0,18.0,82,0.00,,,0.00,0.000000,,2013-02-10 06:52:00,